Powrót do katalogu

FENGYUN 1C DEB

AktywnyPO
NORAD 31938·DEBRIS·🇨🇳 China

Wystrzelony May 10, 1999 z Taiyuan Satellite Launch Center

Loading…

Następne Przeloty (najbliższe 24 godziny)

TLE

ŚwieżeSource: Space-Track

Epoka: Sep 13, 2026, 11:38 UTC

1 31938U 99025CMP 26256.48499584  .00003722  00000-0  25751-3 0  9998
2 31938  98.8950 331.2958 0142967 254.6136 103.9250 14.98550400 32407

Śledź FENGYUN 1C DEB w czasie rzeczywistym z AllMySat

Download on the App Store